Showing default

COSMOS 2215, 22186

Orbit data source: Space-Track

COSMOS 2215, 22186 is a payload satellite owned by VKS (CIS) in LEO that was launched on Tue, 20 Oct 1992 UTC via a TSIKLON-3 launch vehicle from the Plesetsk Missile And Space Complex (PKMTR). Payload-class satellites include a variety of spacecraft equipped with specific instruments for various scientific and technological missions. These include communications satellites like Starlink; space stations such as the ISS; scientific satellites like the Hubble; Earth observation satellites from companies like Planet Labs, Umbra, and HawkEye 360; GPS; miniature CubeSats for education and research; and military/defense satellites.

Loading next visibility...
Identifier
22186, 1992-068E
Orbit
LEO
Last TLE update
16 hours ago
Origin
Manufacturer
NPO PM
Mission
Defense Communications
Bus & Motor
STRELA-3, Unknown motor
Mass
225 kg wet, 225 kg dry
Launch date (UTC)
1992-10-20 (33 years ago)
Launch vehicle
TSIKLON-3
Launch site
Plesetsk Missile And Space Complex (PKMTR)
Object type
Payload
Rocket body
Debris
Shape & HBR
Cyl, 0.8 m
Radar Cross Section
1.257 m², Medium (>0.1 m² and < 1m²)

Expand to show TLE details & history

TLE from 16 hours ago
0 COSMOS 2215
1 22186U 92068E   25199.50812235  .00000006  00000-0 -27449-4 0  9993
2 22186  82.5976 224.4462 0012018 205.9377 154.1112 12.60950732506817
Epoch: 2025-07-18T12:11Z
TLE epoch observation values (Epoch: 2025-07-18T12:11:41.771Z)
Latitude
-0.00003°
Longitude
104.96357°
Altitude
1,430.185 km
Speed
7.142 km/s
True Right ascension
14h 57m 47s
True Declination
0° 00' 00"
Sunlit
Object was in daylight at epoch
Visualization orbit readout
Latitude
56.03546°
Longitude
115.61773°
Altitude
1,436.23 km
Speed
7.145 km/s
Apparent Right ascension
08h 19m 57s
Apparent Declination
63° 58' 10"
Sunlit
Object is in daylight
Visualization observer readout
Local Sidereal Time
16:32:03
Azimuth
336.411° NNW
Elevation
23.15°
Doppler factor
1
Orbital elements
Apogee altitude
1,425.712 km
Perigee altitude
1,406.977 km
Semi-major axis
7,794.482 km
Eccentricity
0.0012
Inclination
82.5976°
RAAN
224.4462°
Arg. of periapsis
205.9377°
True anomaly
154.17125°
Mean anomaly
154.1112°
Eccentric anomaly
154.14123°
Mean motion
3.154 °/min
Orbital period
114.14 mins
BSTAR
-0.000027449
Loading maneuver chart data...
Loading SW <> Apogee altitude chart data...
Loading historical data...
Loading historical data...
Loading historical data...
Loading historical data...
Loading historical data...
Loading historical data...
Loading historical data...
|